Year,Month,Day,Hour,Minute,Value (Times are PST for temperature in C)
2018,09,25,00,00,9.60
2018,09,25,00,01,9.60
2018,09,25,00,02,9.60
2018,09,25,00,03,9.50
2018,09,25,00,04,9.50
2018,09,25,00,05,9.40
2018,09,25,00,06,9.40
2018,09,25,00,07,9.40
2018,09,25,00,08,9.40
2018,09,25,00,09,9.40
2018,09,25,00,10,9.40
2018,09,25,00,11,9.40
2018,09,25,00,12,9.40
2018,09,25,00,13,9.40
2018,09,25,00,14,9.40
2018,09,25,00,15,9.30
2018,09,25,00,16,9.30
2018,09,25,00,17,9.30
2018,09,25,00,18,9.30
2018,09,25,00,19,9.20
2018,09,25,00,20,9.20
2018,09,25,00,21,9.20
2018,09,25,00,22,9.20
2018,09,25,00,23,9.20
2018,09,25,00,24,9.10
2018,09,25,00,25,9.10
2018,09,25,00,26,9.10
2018,09,25,00,27,9.10
2018,09,25,00,28,9.10
2018,09,25,00,29,9.10
2018,09,25,00,30,9.10
2018,09,25,00,31,9.10
2018,09,25,00,32,9.20
2018,09,25,00,33,9.20
2018,09,25,00,34,9.20
2018,09,25,00,35,9.20
2018,09,25,00,36,9.20
2018,09,25,00,37,9.20
2018,09,25,00,38,9.20
2018,09,25,00,39,9.30
2018,09,25,00,40,9.30
2018,09,25,00,41,9.30
2018,09,25,00,42,9.40
2018,09,25,00,43,9.40
2018,09,25,00,44,9.40
2018,09,25,00,45,9.40
2018,09,25,00,46,9.40
2018,09,25,00,47,9.40
2018,09,25,00,48,9.40
2018,09,25,00,49,9.40
2018,09,25,00,50,9.40
2018,09,25,00,51,9.30
2018,09,25,00,52,9.30
2018,09,25,00,53,9.30
2018,09,25,00,54,9.30
2018,09,25,00,55,9.30
2018,09,25,00,56,9.30
2018,09,25,00,57,9.30
2018,09,25,00,58,9.30
2018,09,25,00,59,9.30
2018,09,25,01,00,9.30
2018,09,25,01,01,9.30
2018,09,25,01,02,9.30
2018,09,25,01,03,9.30
2018,09,25,01,04,9.30
2018,09,25,01,05,9.30
2018,09,25,01,06,9.30
2018,09,25,01,07,9.30
2018,09,25,01,08,9.30
2018,09,25,01,09,9.30
2018,09,25,01,10,9.20
2018,09,25,01,11,9.20
2018,09,25,01,12,9.30
2018,09,25,01,13,9.30
2018,09,25,01,14,9.30
2018,09,25,01,15,9.30
2018,09,25,01,16,9.30
2018,09,25,01,17,9.30
2018,09,25,01,18,9.30
2018,09,25,01,19,9.40
2018,09,25,01,20,9.40
2018,09,25,01,21,9.40
2018,09,25,01,22,9.40
2018,09,25,01,23,9.40
2018,09,25,01,24,9.40
2018,09,25,01,25,9.50
2018,09,25,01,26,9.50
2018,09,25,01,27,9.50
2018,09,25,01,28,9.60
2018,09,25,01,29,9.60
2018,09,25,01,30,9.60
2018,09,25,01,31,9.70
2018,09,25,01,32,9.70
2018,09,25,01,33,9.80
2018,09,25,01,34,9.80
2018,09,25,01,35,9.80
2018,09,25,01,36,9.90
2018,09,25,01,37,9.90
2018,09,25,01,38,9.90
2018,09,25,01,39,9.90
2018,09,25,01,40,9.90
2018,09,25,01,41,10.00
2018,09,25,01,42,10.00
2018,09,25,01,43,10.00
2018,09,25,01,44,10.10
2018,09,25,01,45,10.10
2018,09,25,01,46,10.10
2018,09,25,01,47,10.10
2018,09,25,01,48,10.10
2018,09,25,01,49,10.10
2018,09,25,01,50,10.10
2018,09,25,01,51,10.10
2018,09,25,01,52,10.20
2018,09,25,01,53,10.20
2018,09,25,01,54,10.20
2018,09,25,01,55,10.20
2018,09,25,01,56,10.20
2018,09,25,01,57,10.20
2018,09,25,01,58,10.30
2018,09,25,01,59,10.30
2018,09,25,02,00,10.30
2018,09,25,02,01,10.30
2018,09,25,02,02,10.30
2018,09,25,02,03,10.40
2018,09,25,02,04,10.40
2018,09,25,02,05,10.40
2018,09,25,02,06,10.40
2018,09,25,02,07,10.40
2018,09,25,02,08,10.50
2018,09,25,02,09,10.50
2018,09,25,02,10,10.50
2018,09,25,02,11,10.60
2018,09,25,02,12,10.60
2018,09,25,02,13,10.60
2018,09,25,02,14,10.60
2018,09,25,02,15,10.70
2018,09,25,02,16,10.70
2018,09,25,02,17,10.70
2018,09,25,02,18,10.70
2018,09,25,02,19,10.70
2018,09,25,02,20,10.70
2018,09,25,02,21,10.70
2018,09,25,02,22,10.70
2018,09,25,02,23,10.70
2018,09,25,02,24,10.80
2018,09,25,02,25,10.80
2018,09,25,02,26,10.90
2018,09,25,02,27,10.90
2018,09,25,02,28,10.90
2018,09,25,02,29,11.00
2018,09,25,02,30,11.00
2018,09,25,02,31,11.00
2018,09,25,02,32,11.10
2018,09,25,02,33,11.10
2018,09,25,02,34,11.10
2018,09,25,02,35,11.10
2018,09,25,02,36,11.10
2018,09,25,02,37,11.10
2018,09,25,02,38,11.20
2018,09,25,02,39,11.20
2018,09,25,02,40,11.20
2018,09,25,02,41,11.20
2018,09,25,02,42,11.20
2018,09,25,02,43,11.20
2018,09,25,02,44,11.20
2018,09,25,02,45,11.20
2018,09,25,02,46,11.20
2018,09,25,02,47,11.20
2018,09,25,02,48,11.20
2018,09,25,02,49,11.20
2018,09,25,02,50,11.20
2018,09,25,02,51,11.10
2018,09,25,02,52,11.10
2018,09,25,02,53,11.20
2018,09,25,02,54,11.20
2018,09,25,02,55,11.20
2018,09,25,02,56,11.20
2018,09,25,02,57,11.20
2018,09,25,02,58,11.20
2018,09,25,02,59,11.20
2018,09,25,03,00,11.20
2018,09,25,03,01,11.20
2018,09,25,03,02,11.20
2018,09,25,03,03,11.20
2018,09,25,03,04,11.20
2018,09,25,03,05,11.20
2018,09,25,03,06,11.20
2018,09,25,03,07,11.20
2018,09,25,03,08,11.20
2018,09,25,03,09,11.20
2018,09,25,03,10,11.20
2018,09,25,03,11,11.20
2018,09,25,03,12,11.20
2018,09,25,03,13,11.20
2018,09,25,03,14,11.20
2018,09,25,03,15,11.20
2018,09,25,03,16,11.20
2018,09,25,03,17,11.20
2018,09,25,03,18,11.20
2018,09,25,03,19,11.20
2018,09,25,03,20,11.20
2018,09,25,03,21,11.20
2018,09,25,03,22,11.20
2018,09,25,03,23,11.20
2018,09,25,03,24,11.20
2018,09,25,03,25,11.20
2018,09,25,03,26,11.20
2018,09,25,03,27,11.20
2018,09,25,03,28,11.20
2018,09,25,03,29,11.20
2018,09,25,03,30,11.30
2018,09,25,03,31,11.30
2018,09,25,03,32,11.30
2018,09,25,03,33,11.30
2018,09,25,03,34,11.30
2018,09,25,03,35,11.30
2018,09,25,03,36,11.30
2018,09,25,03,37,11.30
2018,09,25,03,38,11.30
2018,09,25,03,39,11.30
2018,09,25,03,40,11.30
2018,09,25,03,41,11.20
2018,09,25,03,42,11.20
2018,09,25,03,43,11.20
2018,09,25,03,44,11.20
2018,09,25,03,45,11.20
2018,09,25,03,46,11.20
2018,09,25,03,47,11.20
2018,09,25,03,48,11.20
2018,09,25,03,49,11.20
2018,09,25,03,50,11.20
2018,09,25,03,51,11.20
2018,09,25,03,52,11.20
2018,09,25,03,53,11.20
2018,09,25,03,54,11.20
2018,09,25,03,55,11.20
2018,09,25,03,56,11.20
2018,09,25,03,57,11.20
2018,09,25,03,58,11.30
2018,09,25,03,59,11.30
2018,09,25,04,00,11.30
2018,09,25,04,01,11.30
2018,09,25,04,02,11.30
2018,09,25,04,03,11.30
2018,09,25,04,04,11.30
2018,09,25,04,05,11.30
2018,09,25,04,06,11.30
2018,09,25,04,07,11.30
2018,09,25,04,08,11.30
2018,09,25,04,09,11.30
2018,09,25,04,10,11.30
2018,09,25,04,11,11.30
2018,09,25,04,12,11.30
2018,09,25,04,13,11.30
2018,09,25,04,14,11.30
2018,09,25,04,15,11.30
2018,09,25,04,16,11.30
2018,09,25,04,17,11.30
2018,09,25,04,18,11.30
2018,09,25,04,19,11.30
2018,09,25,04,20,11.30
2018,09,25,04,21,11.30
2018,09,25,04,22,11.30
2018,09,25,04,23,11.30
2018,09,25,04,24,11.30
2018,09,25,04,25,11.30
2018,09,25,04,26,11.30
2018,09,25,04,27,11.30
2018,09,25,04,28,11.30
2018,09,25,04,29,11.30
2018,09,25,04,30,11.30
2018,09,25,04,31,11.30
2018,09,25,04,32,11.30
2018,09,25,04,33,11.30
2018,09,25,04,34,11.30
2018,09,25,04,35,11.40
2018,09,25,04,36,11.30
2018,09,25,04,37,11.40
2018,09,25,04,38,11.40
2018,09,25,04,39,11.40
2018,09,25,04,40,11.40
2018,09,25,04,41,11.40
2018,09,25,04,42,11.40
2018,09,25,04,43,11.40
2018,09,25,04,44,11.40
2018,09,25,04,45,11.40
2018,09,25,04,46,11.40
2018,09,25,04,47,11.40
2018,09,25,04,48,11.40
2018,09,25,04,49,11.40
2018,09,25,04,50,11.40
2018,09,25,04,51,11.40
2018,09,25,04,52,11.40
2018,09,25,04,53,11.40
2018,09,25,04,54,11.40
2018,09,25,04,55,11.40
2018,09,25,04,56,11.40
2018,09,25,04,57,11.40
2018,09,25,04,58,11.40
2018,09,25,04,59,11.40
2018,09,25,05,00,11.40
2018,09,25,05,01,11.40
2018,09,25,05,02,11.40
2018,09,25,05,03,11.40
2018,09,25,05,04,11.40
2018,09,25,05,05,11.40
2018,09,25,05,06,11.40
2018,09,25,05,07,11.40
2018,09,25,05,08,11.50
2018,09,25,05,09,11.50
2018,09,25,05,10,11.50
2018,09,25,05,11,11.50
2018,09,25,05,12,11.50
2018,09,25,05,13,11.60
2018,09,25,05,14,11.60
2018,09,25,05,15,11.60
2018,09,25,05,16,11.60
2018,09,25,05,17,11.60
2018,09,25,05,18,11.60
2018,09,25,05,19,11.60
2018,09,25,05,20,11.60
2018,09,25,05,21,11.60
2018,09,25,05,22,11.60
2018,09,25,05,23,11.60
2018,09,25,05,24,11.60
2018,09,25,05,25,11.60
2018,09,25,05,26,11.60
2018,09,25,05,27,11.60
2018,09,25,05,28,11.60
2018,09,25,05,29,11.60
2018,09,25,05,30,11.60
2018,09,25,05,31,11.60
2018,09,25,05,32,11.60
2018,09,25,05,33,11.60
2018,09,25,05,34,11.60
2018,09,25,05,35,11.60
2018,09,25,05,36,11.60
2018,09,25,05,37,11.60
2018,09,25,05,38,11.60
2018,09,25,05,39,11.70
2018,09,25,05,40,11.70
2018,09,25,05,41,11.70
2018,09,25,05,42,11.70
2018,09,25,05,43,11.70
2018,09,25,05,44,11.70
2018,09,25,05,45,11.70
2018,09,25,05,46,11.70
2018,09,25,05,47,11.70
2018,09,25,05,48,11.70
2018,09,25,05,49,11.70
2018,09,25,05,50,11.70
2018,09,25,05,51,11.70
2018,09,25,05,52,11.70
2018,09,25,05,53,11.70
2018,09,25,05,54,11.70
2018,09,25,05,55,11.70
2018,09,25,05,56,11.70
2018,09,25,05,57,11.70
2018,09,25,05,58,11.70
2018,09,25,05,59,11.70
2018,09,25,06,00,11.60
2018,09,25,06,01,11.70
2018,09,25,06,02,11.70
2018,09,25,06,03,11.70
2018,09,25,06,04,11.70
2018,09,25,06,05,11.70
2018,09,25,06,06,11.70
2018,09,25,06,07,11.70
2018,09,25,06,08,11.70
2018,09,25,06,09,11.70
2018,09,25,06,10,11.70
2018,09,25,06,11,11.70
2018,09,25,06,12,11.70
2018,09,25,06,13,11.70
2018,09,25,06,14,11.70
2018,09,25,06,15,11.70
2018,09,25,06,16,11.70
2018,09,25,06,17,11.70
2018,09,25,06,18,11.70
2018,09,25,06,19,11.80
2018,09,25,06,20,11.80
2018,09,25,06,21,11.80
2018,09,25,06,22,11.80
2018,09,25,06,23,11.80
2018,09,25,06,24,11.80
2018,09,25,06,25,11.80
2018,09,25,06,26,11.80
2018,09,25,06,27,11.80
2018,09,25,06,28,11.80
2018,09,25,06,29,11.80
2018,09,25,06,30,11.80
2018,09,25,06,31,11.80
2018,09,25,06,32,11.80
2018,09,25,06,33,11.80
2018,09,25,06,34,11.80
2018,09,25,06,35,11.80
2018,09,25,06,36,11.80
2018,09,25,06,37,11.80
2018,09,25,06,38,11.90
2018,09,25,06,39,11.90
2018,09,25,06,40,11.90
2018,09,25,06,41,11.90
2018,09,25,06,42,11.90
2018,09,25,06,43,11.90
2018,09,25,06,44,11.90
2018,09,25,06,45,11.90
2018,09,25,06,46,11.90
2018,09,25,06,47,11.90
2018,09,25,06,48,11.90
2018,09,25,06,49,11.90
2018,09,25,06,50,11.90
2018,09,25,06,51,11.90
2018,09,25,06,52,11.90
2018,09,25,06,53,11.90
2018,09,25,06,54,11.90
2018,09,25,06,55,12.00
2018,09,25,06,56,12.00
2018,09,25,06,57,12.00
2018,09,25,06,58,12.00
2018,09,25,06,59,12.00
2018,09,25,07,00,12.00
2018,09,25,07,01,12.00
2018,09,25,07,02,12.00
2018,09,25,07,03,12.00
2018,09,25,07,04,12.00
2018,09,25,07,05,12.00
2018,09,25,07,06,12.00
2018,09,25,07,07,12.00
2018,09,25,07,08,12.00
2018,09,25,07,09,12.00
2018,09,25,07,10,12.10
2018,09,25,07,11,12.10
2018,09,25,07,12,12.10
2018,09,25,07,13,12.00
2018,09,25,07,14,12.00
2018,09,25,07,15,12.00
2018,09,25,07,16,12.00
2018,09,25,07,17,12.00
2018,09,25,07,18,12.00
2018,09,25,07,19,12.00
2018,09,25,07,20,12.00
2018,09,25,07,21,12.00
2018,09,25,07,22,12.00
2018,09,25,07,23,12.00
2018,09,25,09,38,12.90
2018,09,25,09,39,12.90
2018,09,25,09,40,12.90
2018,09,25,09,41,12.90
2018,09,25,09,42,12.90
2018,09,25,09,43,12.90
2018,09,25,09,44,12.90
2018,09,25,09,45,12.90
2018,09,25,09,46,13.00
2018,09,25,09,47,13.00
2018,09,25,09,48,13.00
2018,09,25,09,49,13.10
2018,09,25,09,50,13.10
2018,09,25,09,51,13.10
2018,09,25,09,52,13.20
2018,09,25,09,53,13.20
2018,09,25,09,54,13.30
2018,09,25,09,55,13.30
2018,09,25,09,56,13.30
2018,09,25,09,57,13.30
2018,09,25,09,58,13.30
2018,09,25,09,59,13.30
2018,09,25,10,00,13.30
2018,09,25,10,01,13.30
2018,09,25,10,02,13.30
2018,09,25,10,03,13.30
2018,09,25,10,04,13.30
2018,09,25,10,05,13.40
2018,09,25,10,06,13.40
2018,09,25,10,07,13.50
2018,09,25,10,08,13.50
2018,09,25,10,09,13.60
2018,09,25,10,10,13.60
2018,09,25,10,11,13.60
2018,09,25,10,12,13.70
2018,09,25,10,13,13.70
2018,09,25,10,14,13.70
2018,09,25,10,15,13.80
2018,09,25,10,16,13.80
2018,09,25,10,17,13.80
2018,09,25,10,18,13.80
2018,09,25,10,19,13.90
2018,09,25,10,20,14.00
2018,09,25,10,21,14.00
2018,09,25,10,22,14.10
2018,09,25,10,23,14.20
2018,09,25,10,24,14.30
2018,09,25,10,25,14.30
2018,09,25,10,26,14.40
2018,09,25,10,27,14.40
2018,09,25,10,28,14.50
2018,09,25,10,29,14.50
2018,09,25,10,30,14.60
2018,09,25,10,31,14.60
2018,09,25,10,32,14.70
2018,09,25,10,33,14.70
2018,09,25,10,34,14.70
2018,09,25,10,35,14.80
2018,09,25,10,36,14.80
2018,09,25,10,37,14.80
2018,09,25,10,38,14.90
2018,09,25,10,39,14.90
2018,09,25,10,40,15.00
2018,09,25,10,41,15.00
2018,09,25,10,42,15.00
2018,09,25,10,43,15.00
2018,09,25,10,44,15.10
2018,09,25,10,45,15.10
2018,09,25,10,46,15.10
2018,09,25,10,47,15.10
2018,09,25,10,48,15.10
2018,09,25,10,49,15.10
2018,09,25,10,50,15.10
2018,09,25,10,51,15.10
2018,09,25,10,52,15.10
2018,09,25,10,53,15.10
2018,09,25,10,54,15.10
2018,09,25,10,55,15.10
2018,09,25,10,56,15.10
2018,09,25,10,57,15.10
2018,09,25,10,58,15.10
2018,09,25,10,59,15.10
2018,09,25,11,00,15.10
2018,09,25,11,01,15.10
2018,09,25,11,02,15.10
2018,09,25,11,03,15.20
2018,09,25,11,04,15.20
2018,09,25,11,05,15.20
2018,09,25,11,06,15.20
2018,09,25,11,07,15.20
2018,09,25,11,08,15.20
2018,09,25,11,09,15.30
2018,09,25,11,10,15.30
2018,09,25,11,11,15.30
2018,09,25,11,12,15.30
2018,09,25,11,13,15.30
2018,09,25,11,14,15.40
2018,09,25,11,15,15.40
2018,09,25,11,16,15.40
2018,09,25,11,17,15.50
2018,09,25,11,18,15.50
2018,09,25,11,19,15.60
2018,09,25,11,20,15.60
2018,09,25,11,21,15.60
2018,09,25,11,22,15.60
2018,09,25,11,23,15.60
2018,09,25,11,24,15.60
2018,09,25,11,25,15.60
2018,09,25,11,26,15.70
2018,09,25,11,27,15.70
2018,09,25,11,28,15.70
2018,09,25,11,29,15.80
2018,09,25,11,30,15.80
2018,09,25,11,31,15.90
2018,09,25,11,32,15.90
2018,09,25,11,33,16.00
2018,09,25,11,34,16.00
2018,09,25,11,35,16.00
2018,09,25,11,36,16.00
2018,09,25,11,37,16.10
2018,09,25,11,38,16.10
2018,09,25,11,39,16.10
2018,09,25,11,40,16.00
2018,09,25,11,41,16.00
2018,09,25,11,42,15.90
2018,09,25,11,43,15.90
2018,09,25,11,44,15.90
2018,09,25,11,45,15.90
2018,09,25,11,46,15.90
2018,09,25,11,47,15.90
2018,09,25,11,48,15.90
2018,09,25,11,49,15.90
2018,09,25,11,50,15.90
2018,09,25,11,51,15.90
2018,09,25,11,52,15.90
2018,09,25,11,53,15.90
2018,09,25,11,54,15.90
2018,09,25,11,55,15.80
2018,09,25,11,56,15.80
2018,09,25,11,57,15.80
2018,09,25,11,58,15.90
2018,09,25,11,59,15.90
2018,09,25,12,00,15.90
2018,09,25,12,01,15.90
2018,09,25,12,02,16.00
2018,09,25,12,03,16.00
2018,09,25,12,04,16.00
2018,09,25,12,05,16.00
2018,09,25,12,06,16.00
2018,09,25,12,07,16.00
2018,09,25,12,08,16.10
2018,09,25,12,09,16.10
2018,09,25,12,10,16.20
2018,09,25,12,11,16.30
2018,09,25,12,12,16.30
2018,09,25,12,13,16.40
2018,09,25,12,14,16.50
2018,09,25,12,15,16.60
2018,09,25,12,16,16.70
2018,09,25,12,17,16.80
2018,09,25,12,18,16.80
2018,09,25,12,19,16.80
2018,09,25,12,20,16.80
2018,09,25,12,21,16.90
2018,09,25,12,22,16.90
2018,09,25,12,23,16.90
2018,09,25,12,24,17.00
2018,09,25,12,25,17.00
2018,09,25,12,26,17.10
2018,09,25,12,27,17.20
2018,09,25,12,28,17.20
2018,09,25,12,29,17.20
2018,09,25,12,30,17.30
2018,09,25,12,31,17.30
2018,09,25,12,32,17.40
2018,09,25,12,33,17.50
2018,09,25,12,34,17.50
2018,09,25,12,35,17.60
2018,09,25,12,36,17.60
2018,09,25,12,37,17.60
2018,09,25,12,38,17.60
2018,09,25,12,39,17.60
2018,09,25,12,40,17.60
2018,09,25,12,41,17.60
2018,09,25,12,42,17.70
2018,09,25,12,43,17.70
2018,09,25,12,44,17.70
2018,09,25,12,45,17.80
2018,09,25,12,46,17.80
2018,09,25,12,47,17.70
2018,09,25,12,48,17.70
2018,09,25,12,49,17.70
2018,09,25,12,50,17.70
2018,09,25,12,51,17.70
2018,09,25,12,52,17.60
2018,09,25,12,53,17.50
2018,09,25,12,54,17.60
2018,09,25,12,55,17.60
2018,09,25,12,56,17.60
2018,09,25,12,57,17.70
2018,09,25,12,58,17.70
2018,09,25,12,59,17.80
2018,09,25,13,00,17.80
2018,09,25,13,01,17.80
2018,09,25,13,02,17.80
2018,09,25,13,03,17.80
2018,09,25,13,04,17.90
2018,09,25,13,05,17.90
2018,09,25,13,06,17.90
2018,09,25,13,07,17.90
2018,09,25,13,08,17.90
2018,09,25,13,09,17.90
2018,09,25,13,10,18.00
2018,09,25,13,11,18.00
2018,09,25,13,12,18.00
2018,09,25,13,13,18.00
2018,09,25,13,14,18.10
2018,09,25,13,15,18.10
2018,09,25,13,16,18.00
2018,09,25,13,17,18.10
2018,09,25,13,18,18.10
2018,09,25,13,19,18.00
2018,09,25,13,20,18.00
2018,09,25,13,21,18.00
2018,09,25,13,22,18.00
2018,09,25,13,23,18.00
2018,09,25,13,24,17.90
2018,09,25,13,25,17.90
2018,09,25,13,26,17.90
2018,09,25,13,27,17.90
2018,09,25,13,28,17.80
2018,09,25,13,29,17.90
2018,09,25,13,30,17.80
2018,09,25,13,31,17.80
2018,09,25,13,32,17.90
2018,09,25,13,33,17.90
2018,09,25,13,34,17.90
2018,09,25,13,35,17.90
2018,09,25,13,36,17.90
2018,09,25,13,37,17.90
2018,09,25,13,38,18.00
2018,09,25,13,39,18.00
2018,09,25,13,40,18.10
2018,09,25,13,41,18.10
2018,09,25,13,42,18.10
2018,09,25,13,43,18.10
2018,09,25,13,44,18.10
2018,09,25,13,45,18.10
2018,09,25,13,46,18.10
2018,09,25,13,47,18.10
2018,09,25,13,48,18.20
2018,09,25,13,49,18.30
2018,09,25,13,50,18.30
2018,09,25,13,51,18.30
2018,09,25,13,52,18.20
2018,09,25,13,53,18.20
2018,09,25,13,54,18.20
2018,09,25,13,55,18.10
2018,09,25,13,56,18.10
2018,09,25,13,57,18.20
2018,09,25,13,58,18.20
2018,09,25,13,59,18.20
2018,09,25,14,00,18.20
2018,09,25,14,01,18.20
2018,09,25,14,02,18.20
2018,09,25,14,03,18.20
2018,09,25,14,04,18.20
2018,09,25,14,05,18.30
2018,09,25,14,06,18.30
2018,09,25,14,07,18.30
2018,09,25,14,08,18.30
2018,09,25,14,09,18.40
2018,09,25,14,10,18.40
2018,09,25,14,11,18.40
2018,09,25,14,12,18.30
2018,09,25,14,13,18.30
2018,09,25,14,14,18.40
2018,09,25,14,15,18.40
2018,09,25,14,16,18.40
2018,09,25,14,17,18.40
2018,09,25,14,18,18.50
2018,09,25,14,19,18.40
2018,09,25,14,20,18.40
2018,09,25,14,21,18.50
2018,09,25,14,22,18.50
2018,09,25,14,23,18.50
2018,09,25,14,24,18.60
2018,09,25,14,25,18.60
2018,09,25,14,26,18.60
2018,09,25,14,27,18.50
2018,09,25,14,28,18.40
2018,09,25,14,29,18.50
2018,09,25,14,30,18.50
2018,09,25,14,31,18.60
2018,09,25,14,32,18.50
2018,09,25,14,33,18.60
2018,09,25,14,34,18.60
2018,09,25,14,35,18.60
2018,09,25,14,36,18.60
2018,09,25,14,37,18.60
2018,09,25,14,38,18.60
2018,09,25,14,39,18.60
2018,09,25,14,40,18.60
2018,09,25,14,41,18.60
2018,09,25,14,42,18.60
2018,09,25,14,43,18.60
2018,09,25,14,44,18.60
2018,09,25,14,45,18.60
2018,09,25,14,46,18.60
2018,09,25,14,47,18.60
2018,09,25,14,48,18.70
2018,09,25,14,49,18.70
2018,09,25,14,50,18.70
2018,09,25,14,51,18.70
2018,09,25,14,52,18.70
2018,09,25,14,53,18.80
2018,09,25,14,54,18.80
2018,09,25,14,55,18.80
2018,09,25,14,56,18.80
2018,09,25,14,57,18.90
2018,09,25,14,58,18.90
2018,09,25,14,59,18.90
2018,09,25,15,00,18.90
2018,09,25,15,01,18.90
2018,09,25,15,02,19.00
2018,09,25,15,03,19.00
2018,09,25,15,04,19.00
2018,09,25,15,05,19.00
2018,09,25,15,06,19.00
2018,09,25,15,07,19.00
2018,09,25,15,08,18.90
2018,09,25,15,09,18.90
2018,09,25,15,10,18.90
2018,09,25,15,11,18.90
2018,09,25,15,12,18.90
2018,09,25,15,13,18.90
2018,09,25,15,14,18.90
2018,09,25,15,15,18.80
2018,09,25,15,16,18.80
2018,09,25,15,17,18.80
2018,09,25,15,18,18.80
2018,09,25,15,19,18.80
2018,09,25,15,20,18.80
2018,09,25,15,21,18.80
2018,09,25,15,22,18.90
2018,09,25,15,23,18.90
2018,09,25,15,24,18.90
2018,09,25,15,25,18.90
2018,09,25,15,26,19.00
2018,09,25,15,27,19.00
2018,09,25,15,28,19.00
2018,09,25,15,29,19.00
2018,09,25,15,30,19.00
2018,09,25,15,31,19.00
2018,09,25,15,32,18.90
2018,09,25,15,33,18.90
2018,09,25,15,34,18.90
2018,09,25,15,35,18.80
2018,09,25,15,36,18.80
2018,09,25,15,37,18.80
2018,09,25,15,38,18.80
2018,09,25,15,39,18.80
2018,09,25,15,40,18.80
2018,09,25,15,41,18.90
2018,09,25,15,42,18.90
2018,09,25,15,43,18.80
2018,09,25,15,44,18.80
2018,09,25,15,45,18.80
2018,09,25,15,46,18.80
2018,09,25,15,47,18.90
2018,09,25,15,48,18.90
2018,09,25,15,49,18.90
2018,09,25,15,50,18.90
2018,09,25,15,51,19.00
2018,09,25,15,52,19.00
2018,09,25,15,53,19.00
2018,09,25,15,54,19.00
2018,09,25,15,55,19.10
2018,09,25,15,56,19.10
2018,09,25,15,57,19.10
2018,09,25,15,58,19.20
2018,09,25,15,59,19.20
2018,09,25,16,00,19.20
2018,09,25,16,01,19.30
2018,09,25,16,02,19.30
2018,09,25,16,03,19.30
2018,09,25,16,04,19.30
2018,09,25,16,05,19.30
2018,09,25,16,06,19.30
2018,09,25,16,07,19.30
2018,09,25,16,08,19.30
2018,09,25,16,09,19.20
2018,09,25,16,10,19.20
2018,09,25,16,11,19.10
2018,09,25,16,12,19.10
2018,09,25,16,13,19.10
2018,09,25,16,14,19.10
2018,09,25,16,15,19.10
2018,09,25,16,16,19.10
2018,09,25,16,17,19.10
2018,09,25,16,18,19.20
2018,09,25,16,19,19.20
2018,09,25,16,20,19.20
2018,09,25,16,21,19.20
2018,09,25,16,22,19.20
2018,09,25,16,23,19.20
2018,09,25,16,24,19.20
2018,09,25,16,25,19.10
2018,09,25,16,26,19.10
2018,09,25,16,27,19.10
2018,09,25,16,28,19.00
2018,09,25,16,29,19.00
2018,09,25,16,30,19.00
2018,09,25,16,31,19.00
2018,09,25,16,32,19.00
2018,09,25,16,33,18.90
2018,09,25,16,34,18.90
2018,09,25,16,35,18.90
2018,09,25,16,36,18.90
2018,09,25,16,37,18.90
2018,09,25,16,38,19.00
2018,09,25,16,39,19.00
2018,09,25,16,40,19.00
2018,09,25,16,41,19.00
2018,09,25,16,42,18.90
2018,09,25,16,43,19.00
2018,09,25,16,44,19.00
2018,09,25,16,45,19.00
2018,09,25,16,46,19.00
2018,09,25,16,47,19.00
2018,09,25,16,48,19.00
2018,09,25,16,49,19.00
2018,09,25,16,50,19.00
2018,09,25,16,51,19.10
2018,09,25,16,52,19.10
2018,09,25,16,53,19.10
2018,09,25,16,54,19.00
2018,09,25,16,55,19.00
2018,09,25,16,56,19.00
2018,09,25,16,57,18.90
2018,09,25,16,58,18.90
2018,09,25,16,59,18.90
2018,09,25,17,00,18.90
2018,09,25,17,01,18.90
2018,09,25,17,02,18.90
2018,09,25,17,03,18.90
2018,09,25,17,04,18.90
2018,09,25,17,05,18.90
2018,09,25,17,06,18.90
2018,09,25,17,07,18.90
2018,09,25,17,08,18.80
2018,09,25,17,09,18.80
2018,09,25,17,10,18.80
2018,09,25,17,11,18.80
2018,09,25,17,12,18.80
2018,09,25,17,13,18.80
2018,09,25,17,14,18.80
2018,09,25,17,15,18.90
2018,09,25,17,16,18.90
2018,09,25,17,17,18.90
2018,09,25,17,18,18.90
2018,09,25,17,19,18.90
2018,09,25,17,20,18.80
2018,09,25,17,21,18.80
2018,09,25,17,22,18.80
2018,09,25,17,23,18.80
2018,09,25,17,24,18.70
2018,09,25,17,25,18.70
2018,09,25,17,26,18.70
2018,09,25,17,27,18.70
2018,09,25,17,28,18.70
2018,09,25,17,29,18.70
2018,09,25,17,30,18.60
2018,09,25,17,31,18.60
2018,09,25,17,32,18.60
2018,09,25,17,33,18.60
2018,09,25,17,34,18.70
2018,09,25,17,35,18.70
2018,09,25,17,36,18.70
2018,09,25,17,37,18.70
2018,09,25,17,38,18.70
2018,09,25,17,39,18.70
2018,09,25,17,40,18.70
2018,09,25,17,41,18.70
2018,09,25,17,42,18.60
2018,09,25,17,43,18.60
2018,09,25,17,44,18.60
2018,09,25,17,45,18.50
2018,09,25,17,46,18.50
2018,09,25,17,47,18.50
2018,09,25,17,48,18.50
2018,09,25,17,49,18.50
2018,09,25,17,50,18.50
2018,09,25,17,51,18.50
2018,09,25,17,52,18.40
2018,09,25,17,53,18.40
2018,09,25,17,54,18.40
2018,09,25,17,55,18.40
2018,09,25,17,56,18.40
2018,09,25,17,57,18.40
2018,09,25,17,58,18.40
2018,09,25,17,59,18.40
2018,09,25,18,00,18.40
2018,09,25,18,01,18.30
2018,09,25,18,02,18.30
2018,09,25,18,03,18.30
2018,09,25,18,04,18.30
2018,09,25,18,05,18.30
2018,09,25,18,06,18.30
2018,09,25,18,07,18.20
2018,09,25,18,08,18.20
2018,09,25,18,09,18.20
2018,09,25,18,10,18.20
2018,09,25,18,11,18.20
2018,09,25,18,12,18.20
2018,09,25,18,13,18.20
2018,09,25,18,14,18.20
2018,09,25,18,15,18.20
2018,09,25,18,16,18.20
2018,09,25,18,17,18.20
2018,09,25,18,18,18.20
2018,09,25,18,19,18.20
2018,09,25,18,20,18.10
2018,09,25,18,21,18.10
2018,09,25,18,22,18.10
2018,09,25,18,23,18.10
2018,09,25,18,24,18.00
2018,09,25,18,25,18.00
2018,09,25,18,26,18.00
2018,09,25,18,27,17.90
2018,09,25,18,28,17.90
2018,09,25,18,29,17.90
2018,09,25,18,30,17.80
2018,09,25,18,31,17.80
2018,09,25,18,32,17.70
2018,09,25,18,33,17.60
2018,09,25,18,34,17.60
2018,09,25,18,35,17.50
2018,09,25,18,36,17.50
2018,09,25,18,37,17.40
2018,09,25,18,38,17.40
2018,09,25,18,39,17.30
2018,09,25,18,40,17.30
2018,09,25,18,41,17.20
2018,09,25,18,42,17.20
2018,09,25,18,43,17.10
2018,09,25,18,44,17.10
2018,09,25,18,45,17.10
2018,09,25,18,46,17.00
2018,09,25,18,47,17.00
2018,09,25,18,48,16.90
2018,09,25,18,49,16.90
2018,09,25,18,50,16.90
2018,09,25,18,51,16.90
2018,09,25,18,52,16.80
2018,09,25,18,53,16.80
2018,09,25,18,54,16.80
2018,09,25,18,55,16.80
2018,09,25,18,56,16.80
2018,09,25,18,57,16.80
2018,09,25,18,58,16.70
2018,09,25,18,59,16.70
2018,09,25,19,00,16.70
2018,09,25,19,01,16.60
2018,09,25,19,02,16.60
2018,09,25,19,03,16.60
2018,09,25,19,04,16.50
2018,09,25,19,05,16.50
2018,09,25,19,06,16.50
2018,09,25,19,07,16.40
2018,09,25,19,08,16.40
2018,09,25,19,09,16.40
2018,09,25,19,10,16.30
2018,09,25,19,11,16.30
2018,09,25,19,12,16.30
2018,09,25,19,13,16.20
2018,09,25,19,14,16.20
2018,09,25,19,15,16.10
2018,09,25,19,16,16.10
2018,09,25,19,17,16.10
2018,09,25,19,18,16.00
2018,09,25,19,19,16.00
2018,09,25,19,20,15.90
2018,09,25,19,21,15.90
2018,09,25,19,22,15.90
2018,09,25,19,23,15.90
2018,09,25,19,24,15.80
2018,09,25,19,25,15.80
2018,09,25,19,26,15.80
2018,09,25,19,27,15.80
2018,09,25,19,28,15.80
2018,09,25,19,29,15.70
2018,09,25,19,30,15.70
2018,09,25,19,31,15.70
2018,09,25,19,32,15.70
2018,09,25,19,33,15.70
2018,09,25,19,34,15.60
2018,09,25,19,35,15.60
2018,09,25,19,36,15.60
2018,09,25,19,37,15.50